Time,TemperatureF,DewpointF,PressureIn,WindDirection,WindDirectionDegrees,WindSpeedMPH,WindSpeedGustMPH,Humidity,HourlyPrecipIn,Conditions,Clouds,dailyrainin,SoftwareType,DateUTC
2013-02-06 00:02:00,38.0,25.0,-100.00,NW,315,4.0,4.0,61,-99.99,,,-99.99,,2013-02-06 00:02:00,
2013-02-06 00:11:00,38.0,25.0,-100.00,NW,310,6.0,6.0,61,-99.99,,,-99.99,,2013-02-06 00:11:00,
2013-02-06 00:21:00,38.0,25.0,-100.00,NW,310,4.0,4.0,61,-99.99,,,-99.99,,2013-02-06 00:21:00,
2013-02-06 00:32:00,37.0,25.0,-100.00,WNW,295,3.0,3.0,62,-99.99,,,-99.99,,2013-02-06 00:32:00,
2013-02-06 00:42:00,37.0,25.0,-100.00,WNW,295,3.0,3.0,62,-99.99,,,-99.99,,2013-02-06 00:42:00,
2013-02-06 00:52:00,35.0,23.0,-100.00,NNW,335,2.0,2.0,64,-99.99,,,-99.99,,2013-02-06 00:52:00,
2013-02-06 01:02:00,35.0,23.0,-100.00,NNW,335,2.0,2.0,64,-99.99,,,-99.99,,2013-02-06 01:02:00,
2013-02-06 01:11:00,34.0,25.0,-100.00,SW,220,1.0,1.0,68,-99.99,,,-99.99,,2013-02-06 01:11:00,
2013-02-06 01:21:00,36.0,27.0,-100.00,WSW,240,2.0,3.0,68,-99.99,,,-99.99,,2013-02-06 01:21:00,
2013-02-06 01:32:00,35.0,25.0,-100.00,WNW,285,3.0,4.0,66,-99.99,,,-99.99,,2013-02-06 01:32:00,
2013-02-06 01:42:00,35.0,25.0,-100.00,WNW,285,3.0,4.0,66,-99.99,,,-99.99,,2013-02-06 01:42:00,
2013-02-06 01:52:00,31.0,23.0,-100.00,WNW,290,1.0,1.0,71,-99.99,,,-99.99,,2013-02-06 01:52:00,
2013-02-06 02:01:00,31.0,23.0,-100.00,WNW,290,1.0,1.0,71,-99.99,,,-99.99,,2013-02-06 02:01:00,
2013-02-06 02:11:00,31.0,24.0,-100.00,West,265,0.0,0.0,74,-99.99,,,-99.99,,2013-02-06 02:11:00,
2013-02-06 02:22:00,31.0,24.0,-100.00,West,265,0.0,0.0,74,-99.99,,,-99.99,,2013-02-06 02:22:00,
2013-02-06 02:32:00,30.0,24.0,-100.00,West,275,2.0,3.0,81,-99.99,,,-99.99,,2013-02-06 02:32:00,
2013-02-06 02:42:00,30.0,24.0,-100.00,West,275,2.0,3.0,81,-99.99,,,-99.99,,2013-02-06 02:42:00,
2013-02-06 02:52:00,31.0,26.0,-100.00,West,275,4.0,4.0,84,-99.99,,,-99.99,,2013-02-06 02:52:00,
2013-02-06 03:02:00,31.0,26.0,-100.00,West,275,4.0,4.0,84,-99.99,,,-99.99,,2013-02-06 03:02:00,
2013-02-06 03:12:00,31.0,27.0,-100.00,West,275,3.0,4.0,84,-99.99,,,-99.99,,2013-02-06 03:12:00,
2013-02-06 03:22:00,32.0,28.0,-100.00,WNW,295,4.0,4.0,84,-99.99,,,-99.99,,2013-02-06 03:22:00,
2013-02-06 03:32:00,30.0,26.0,-100.00,NW,320,1.0,2.0,86,-99.99,,,-99.99,,2013-02-06 03:32:00,
2013-02-06 03:42:00,30.0,26.0,-100.00,NW,320,1.0,2.0,86,-99.99,,,-99.99,,2013-02-06 03:42:00,
2013-02-06 03:52:00,29.0,26.0,-100.00,West,270,2.0,2.0,86,-99.99,,,-99.99,,2013-02-06 03:52:00,
2013-02-06 04:02:00,29.0,26.0,-100.00,West,270,2.0,2.0,86,-99.99,,,-99.99,,2013-02-06 04:02:00,
2013-02-06 04:11:00,29.0,26.0,-100.00,WNW,290,1.0,1.0,86,-99.99,,,-99.99,,2013-02-06 04:11:00,
2013-02-06 04:21:00,29.0,26.0,-100.00,West,260,0.0,0.0,87,-99.99,,,-99.99,,2013-02-06 04:21:00,
2013-02-06 04:32:00,27.0,24.0,-100.00,North,350,1.0,2.0,88,-99.99,,,-99.99,,2013-02-06 04:32:00,
2013-02-06 04:52:00,27.0,24.0,-100.00,North,0,0.0,0.0,89,-99.99,,,-99.99,,2013-02-06 04:52:00,
2013-02-06 05:02:00,27.0,24.0,-100.00,North,0,0.0,0.0,89,-99.99,,,-99.99,,2013-02-06 05:02:00,
2013-02-06 05:12:00,27.0,24.0,-100.00,North,0,0.0,0.0,90,-99.99,,,-99.99,,2013-02-06 05:12:00,
2013-02-06 05:22:00,27.0,25.0,-100.00,NNE,25,0.0,1.0,90,-99.99,,,-99.99,,2013-02-06 05:22:00,
2013-02-06 05:31:00,26.0,24.0,-100.00,North,350,1.0,1.0,91,-99.99,,,-99.99,,2013-02-06 05:31:00,
2013-02-06 05:52:00,26.0,24.0,-100.00,NNW,340,1.0,1.0,91,-99.99,,,-99.99,,2013-02-06 05:52:00,
2013-02-06 06:01:00,26.0,24.0,-100.00,NNW,340,1.0,1.0,91,-99.99,,,-99.99,,2013-02-06 06:01:00,
2013-02-06 06:11:00,26.0,24.0,-100.00,NNW,340,1.0,1.0,91,-99.99,,,-99.99,,2013-02-06 06:11:00,
2013-02-06 06:21:00,26.0,24.0,-100.00,NNW,340,1.0,1.0,91,-99.99,,,-99.99,,2013-02-06 06:21:00,
2013-02-06 06:32:00,28.0,26.0,-100.00,SSE,150,1.0,1.0,92,-99.99,,,-99.99,,2013-02-06 06:32:00,
2013-02-06 06:42:00,28.0,26.0,-100.00,SSE,150,1.0,1.0,92,-99.99,,,-99.99,,2013-02-06 06:42:00,
2013-02-06 06:52:00,28.0,26.0,-100.00,SSE,165,2.0,4.0,92,-99.99,,,-99.99,,2013-02-06 06:52:00,
2013-02-06 07:01:00,28.0,26.0,-100.00,SSE,165,2.0,4.0,92,-99.99,,,-99.99,,2013-02-06 07:01:00,
2013-02-06 07:11:00,26.0,24.0,-100.00,South,175,2.0,2.0,93,-99.99,,,-99.99,,2013-02-06 07:11:00,
2013-02-06 07:21:00,26.0,24.0,-100.00,South,180,2.0,2.0,93,-99.99,,,-99.99,,2013-02-06 07:21:00,
2013-02-06 07:32:00,25.0,24.0,-100.00,SSE,155,2.0,2.0,93,-99.99,,,-99.99,,2013-02-06 07:32:00,
2013-02-06 07:41:00,25.0,24.0,-100.00,SSE,155,2.0,2.0,93,-99.99,,,-99.99,,2013-02-06 07:41:00,
2013-02-06 07:51:00,25.0,24.0,-100.00,SSE,155,2.0,2.0,93,-99.99,,,-99.99,,2013-02-06 07:51:00,
2013-02-06 08:01:00,25.0,24.0,-100.00,SSE,155,2.0,2.0,93,-99.99,,,-99.99,,2013-02-06 08:01:00,
2013-02-06 08:11:00,26.0,24.0,-100.00,South,180,1.0,2.0,93,-99.99,,,-99.99,,2013-02-06 08:11:00,
2013-02-06 08:21:00,25.0,24.0,-100.00,SSW,195,2.0,2.0,93,-99.99,,,-99.99,,2013-02-06 08:21:00,
2013-02-06 08:31:00,24.0,22.0,-100.00,East,95,1.0,1.0,93,-99.99,,,-99.99,,2013-02-06 08:31:00,
2013-02-06 08:42:00,24.0,22.0,-100.00,East,95,1.0,1.0,93,-99.99,,,-99.99,,2013-02-06 08:42:00,
2013-02-06 08:53:00,24.0,22.0,-100.00,ENE,70,1.0,1.0,93,-99.99,,,-99.99,,2013-02-06 08:53:00,
2013-02-06 09:01:00,24.0,22.0,-100.00,ENE,70,1.0,1.0,93,-99.99,,,-99.99,,2013-02-06 09:01:00,
2013-02-06 09:11:00,24.0,22.0,-100.00,East,85,2.0,2.0,93,-99.99,,,-99.99,,2013-02-06 09:11:00,
2013-02-06 09:21:00,24.0,23.0,-100.00,East,90,2.0,2.0,93,-99.99,,,-99.99,,2013-02-06 09:21:00,
2013-02-06 09:31:00,25.0,23.0,-100.00,East,90,2.0,2.0,93,-99.99,,,-99.99,,2013-02-06 09:31:00,
2013-02-06 09:41:00,25.0,23.0,-100.00,East,90,2.0,2.0,93,-99.99,,,-99.99,,2013-02-06 09:41:00,
2013-02-06 09:51:00,25.0,23.0,-100.00,SE,130,1.0,1.0,93,-99.99,,,-99.99,,2013-02-06 09:51:00,
2013-02-06 10:01:00,25.0,23.0,-100.00,SE,130,1.0,1.0,93,-99.99,,,-99.99,,2013-02-06 10:01:00,
2013-02-06 10:11:00,25.0,23.0,-100.00,SE,130,1.0,1.0,93,-99.99,,,-99.99,,2013-02-06 10:11:00,
2013-02-06 10:21:00,25.0,23.0,-100.00,SSE,155,1.0,2.0,93,-99.99,,,-99.99,,2013-02-06 10:21:00,
2013-02-06 10:31:00,25.0,23.0,-100.00,East,100,2.0,2.0,93,-99.99,,,-99.99,,2013-02-06 10:31:00,
2013-02-06 10:41:00,25.0,23.0,-100.00,East,100,2.0,2.0,93,-99.99,,,-99.99,,2013-02-06 10:41:00,
2013-02-06 10:52:00,26.0,24.0,-100.00,East,80,2.0,2.0,93,-99.99,,,-99.99,,2013-02-06 10:52:00,
2013-02-06 11:01:00,26.0,24.0,-100.00,East,80,2.0,2.0,93,-99.99,,,-99.99,,2013-02-06 11:01:00,
2013-02-06 11:11:00,26.0,24.0,-100.00,ESE,120,3.0,3.0,93,-99.99,,,-99.99,,2013-02-06 11:11:00,
2013-02-06 11:22:00,26.0,24.0,-100.00,ESE,120,3.0,3.0,93,-99.99,,,-99.99,,2013-02-06 11:22:00,
2013-02-06 11:32:00,27.0,25.0,-100.00,ESE,120,7.0,7.0,93,-99.99,,,-99.99,,2013-02-06 11:32:00,
2013-02-06 11:42:00,27.0,25.0,-100.00,ESE,120,7.0,7.0,93,-99.99,,,-99.99,,2013-02-06 11:42:00,
2013-02-06 11:52:00,27.0,25.0,-100.00,ESE,115,6.0,7.0,93,-99.99,,,-99.99,,2013-02-06 11:52:00,
2013-02-06 12:02:00,27.0,25.0,-100.00,ESE,115,6.0,7.0,93,-99.99,,,-99.99,,2013-02-06 12:02:00,
2013-02-06 12:12:00,27.0,25.0,-100.00,ESE,120,6.0,7.0,93,-99.99,,,-99.99,,2013-02-06 12:12:00,
2013-02-06 12:22:00,27.0,25.0,-100.00,ESE,115,8.0,8.0,93,-99.99,,,-99.99,,2013-02-06 12:22:00,
2013-02-06 12:32:00,27.0,26.0,-100.00,ESE,115,6.0,7.0,93,-99.99,,,-99.99,,2013-02-06 12:32:00,
2013-02-06 12:42:00,27.0,26.0,-100.00,ESE,115,6.0,7.0,93,-99.99,,,-99.99,,2013-02-06 12:42:00,
2013-02-06 12:52:00,28.0,26.0,-100.00,East,100,7.0,9.0,93,-99.99,,,-99.99,,2013-02-06 12:52:00,
2013-02-06 13:01:00,28.0,26.0,-100.00,East,100,7.0,9.0,93,-99.99,,,-99.99,,2013-02-06 13:01:00,
2013-02-06 13:12:00,28.0,26.0,-100.00,ESE,115,6.0,7.0,93,-99.99,,,-99.99,,2013-02-06 13:12:00,
2013-02-06 13:22:00,28.0,26.0,-100.00,East,100,6.0,7.0,93,-99.99,,,-99.99,,2013-02-06 13:22:00,
2013-02-06 13:32:00,28.0,26.0,-100.00,ESE,115,7.0,9.0,93,-99.99,,,-99.99,,2013-02-06 13:32:00,
2013-02-06 13:42:00,28.0,26.0,-100.00,ESE,115,7.0,9.0,93,-99.99,,,-99.99,,2013-02-06 13:42:00,
2013-02-06 13:52:00,28.0,26.0,-100.00,ESE,120,4.0,5.0,92,-99.99,,,-99.99,,2013-02-06 13:52:00,
2013-02-06 14:01:00,28.0,26.0,-100.00,ESE,120,4.0,5.0,92,-99.99,,,-99.99,,2013-02-06 14:01:00,
2013-02-06 14:11:00,28.0,26.0,-100.00,ESE,120,6.0,8.0,91,-99.99,,,-99.99,,2013-02-06 14:11:00,
2013-02-06 14:21:00,28.0,26.0,-100.00,SE,130,7.0,8.0,91,-99.99,,,-99.99,,2013-02-06 14:21:00,
2013-02-06 14:32:00,28.0,26.0,-100.00,SE,125,7.0,8.0,90,-99.99,,,-99.99,,2013-02-06 14:32:00,
2013-02-06 14:42:00,28.0,26.0,-100.00,SE,125,7.0,8.0,90,-99.99,,,-99.99,,2013-02-06 14:42:00,
2013-02-06 14:52:00,28.0,26.0,-100.00,ESE,120,7.0,9.0,90,-99.99,,,-99.99,,2013-02-06 14:52:00,
2013-02-06 15:01:00,28.0,26.0,-100.00,ESE,120,7.0,9.0,90,-99.99,,,-99.99,,2013-02-06 15:01:00,
2013-02-06 15:11:00,29.0,27.0,-100.00,SE,130,7.0,9.0,90,-99.99,,,-99.99,,2013-02-06 15:11:00,
2013-02-06 15:21:00,30.0,27.0,-100.00,SE,125,10.0,12.0,88,-99.99,,,-99.99,,2013-02-06 15:21:00,
2013-02-06 15:31:00,31.0,28.0,-100.00,ESE,120,11.0,12.0,86,-99.99,,,-99.99,,2013-02-06 15:31:00,
2013-02-06 15:41:00,31.0,28.0,-100.00,ESE,120,11.0,12.0,86,-99.99,,,-99.99,,2013-02-06 15:41:00,
2013-02-06 15:51:00,32.0,28.0,-100.00,SE,135,12.0,14.0,84,-99.99,,,-99.99,,2013-02-06 15:51:00,
2013-02-06 16:01:00,32.0,28.0,-100.00,SE,135,12.0,14.0,84,-99.99,,,-99.99,,2013-02-06 16:01:00,
2013-02-06 16:11:00,34.0,29.0,-100.00,SSE,150,8.0,9.0,82,-99.99,,,-99.99,,2013-02-06 16:11:00,
2013-02-06 16:21:00,34.0,28.0,-100.00,SE,140,10.0,13.0,80,-99.99,,,-99.99,,2013-02-06 16:21:00,
2013-02-06 16:32:00,35.0,28.0,-100.00,SE,135,12.0,15.0,76,-99.99,,,-99.99,,2013-02-06 16:32:00,
2013-02-06 16:42:00,35.0,28.0,-100.00,SE,135,12.0,15.0,76,-99.99,,,-99.99,,2013-02-06 16:42:00,
2013-02-06 16:51:00,36.0,29.0,-100.00,SE,130,7.0,9.0,74,-99.99,,,-99.99,,2013-02-06 16:51:00,
2013-02-06 17:02:00,36.0,29.0,-100.00,SE,130,7.0,9.0,74,-99.99,,,-99.99,,2013-02-06 17:02:00,
2013-02-06 17:11:00,38.0,29.0,-100.00,SSE,150,12.0,14.0,70,-99.99,,,-99.99,,2013-02-06 17:11:00,
2013-02-06 17:21:00,38.0,28.0,-100.00,SSE,155,16.0,19.0,67,-99.99,,,-99.99,,2013-02-06 17:21:00,
2013-02-06 17:32:00,40.0,28.0,-100.00,SSE,165,14.0,18.0,63,-99.99,,,-99.99,,2013-02-06 17:32:00,
2013-02-06 17:41:00,40.0,28.0,-100.00,SSE,165,14.0,18.0,63,-99.99,,,-99.99,,2013-02-06 17:41:00,
2013-02-06 17:52:00,40.0,28.0,-100.00,SSE,160,13.0,16.0,61,-99.99,,,-99.99,,2013-02-06 17:52:00,
2013-02-06 18:01:00,40.0,28.0,-100.00,SSE,160,13.0,16.0,61,-99.99,,,-99.99,,2013-02-06 18:01:00,
2013-02-06 18:11:00,41.0,28.0,-100.00,SE,145,12.0,14.0,61,-99.99,,,-99.99,,2013-02-06 18:11:00,
2013-02-06 18:23:00,41.0,28.0,-100.00,SE,145,14.0,15.0,59,-99.99,,,-99.99,,2013-02-06 18:23:00,
2013-02-06 18:32:00,41.0,27.0,-100.00,SSE,160,16.0,17.0,57,-99.99,,,-99.99,,2013-02-06 18:32:00,
2013-02-06 18:41:00,41.0,27.0,-100.00,SSE,160,16.0,17.0,57,-99.99,,,-99.99,,2013-02-06 18:41:00,
2013-02-06 18:52:00,41.0,27.0,-100.00,SSE,160,11.0,13.0,57,-99.99,,,-99.99,,2013-02-06 18:52:00,
2013-02-06 19:01:00,41.0,27.0,-100.00,SSE,160,11.0,13.0,57,-99.99,,,-99.99,,2013-02-06 19:01:00,
2013-02-06 19:11:00,42.0,27.0,-100.00,SSE,160,9.0,11.0,57,-99.99,,,-99.99,,2013-02-06 19:11:00,
2013-02-06 19:21:00,42.0,28.0,-100.00,SE,145,9.0,11.0,57,-99.99,,,-99.99,,2013-02-06 19:21:00,
2013-02-06 19:31:00,43.0,28.0,-100.00,SE,145,9.0,12.0,56,-99.99,,,-99.99,,2013-02-06 19:31:00,
2013-02-06 19:41:00,43.0,28.0,-100.00,SE,145,9.0,12.0,56,-99.99,,,-99.99,,2013-02-06 19:41:00,
2013-02-06 19:52:00,44.0,29.0,-100.00,SE,140,9.0,10.0,55,-99.99,,,-99.99,,2013-02-06 19:52:00,
2013-02-06 20:01:00,44.0,29.0,-100.00,SE,140,9.0,10.0,55,-99.99,,,-99.99,,2013-02-06 20:01:00,
2013-02-06 20:11:00,44.0,28.0,-100.00,SE,145,9.0,14.0,53,-99.99,,,-99.99,,2013-02-06 20:11:00,
2013-02-06 20:21:00,45.0,28.0,-100.00,SSE,160,10.0,12.0,52,-99.99,,,-99.99,,2013-02-06 20:21:00,
2013-02-06 20:32:00,45.0,27.0,-100.00,SE,140,9.0,9.0,50,-99.99,,,-99.99,,2013-02-06 20:32:00,
2013-02-06 20:41:00,45.0,27.0,-100.00,SE,140,9.0,9.0,50,-99.99,,,-99.99,,2013-02-06 20:41:00,
2013-02-06 20:52:00,45.0,27.0,-100.00,SE,130,7.0,9.0,49,-99.99,,,-99.99,,2013-02-06 20:52:00,
2013-02-06 21:01:00,45.0,27.0,-100.00,SE,130,7.0,9.0,49,-99.99,,,-99.99,,2013-02-06 21:01:00,
2013-02-06 21:11:00,45.0,27.0,-100.00,SE,135,8.0,9.0,49,-99.99,,,-99.99,,2013-02-06 21:11:00,
2013-02-06 21:21:00,45.0,27.0,-100.00,SSE,150,9.0,12.0,50,-99.99,,,-99.99,,2013-02-06 21:21:00,
2013-02-06 21:32:00,44.0,27.0,-100.00,SE,135,9.0,12.0,50,-99.99,,,-99.99,,2013-02-06 21:32:00,
2013-02-06 21:41:00,44.0,27.0,-100.00,SE,135,9.0,12.0,50,-99.99,,,-99.99,,2013-02-06 21:41:00,
2013-02-06 21:51:00,44.0,26.0,-100.00,SSE,150,14.0,16.0,49,-99.99,,,-99.99,,2013-02-06 21:51:00,
2013-02-06 22:01:00,44.0,26.0,-100.00,SSE,150,14.0,16.0,49,-99.99,,,-99.99,,2013-02-06 22:01:00,
2013-02-06 22:11:00,44.0,26.0,-100.00,SSE,150,14.0,16.0,49,-99.99,,,-99.99,,2013-02-06 22:11:00,
2013-02-06 22:21:00,44.0,26.0,-100.00,SE,140,8.0,9.0,48,-99.99,,,-99.99,,2013-02-06 22:21:00,
2013-02-06 22:31:00,44.0,26.0,-100.00,SSE,150,7.0,9.0,49,-99.99,,,-99.99,,2013-02-06 22:31:00,
2013-02-06 22:52:00,44.0,25.0,-100.00,SE,145,7.0,10.0,49,-99.99,,,-99.99,,2013-02-06 22:52:00,
2013-02-06 23:01:00,44.0,25.0,-100.00,SE,145,7.0,10.0,49,-99.99,,,-99.99,,2013-02-06 23:01:00,
2013-02-06 23:11:00,43.0,26.0,-100.00,ESE,120,4.0,4.0,51,-99.99,,,-99.99,,2013-02-06 23:11:00,
2013-02-06 23:21:00,43.0,26.0,-100.00,ESE,120,4.0,4.0,51,-99.99,,,-99.99,,2013-02-06 23:21:00,
2013-02-06 23:32:00,43.0,26.0,-100.00,SE,130,4.0,6.0,53,-99.99,,,-99.99,,2013-02-06 23:32:00,
2013-02-06 23:42:00,43.0,26.0,-100.00,SE,130,4.0,6.0,53,-99.99,,,-99.99,,2013-02-06 23:42:00,
2013-02-06 23:52:00,42.0,26.0,-100.00,SE,130,4.0,6.0,53,-99.99,,,-99.99,,2013-02-06 23:52:00,